OneWeb SL0328

operational
NORAD ID: 49197 Int'l Des: 2021-083 Owner: ONEWEBN Country: UK Constellation: oneweb
LEOCIRCULARPOLARONEWEB_TYPE

关于 OneWeb SL0328

正在加载描述...

实时位置

正在加载3D地球...

即将过境

高度历史

Altitude vs Time

uPlot chart will show altitude changes over time

两行轨道根数

1 49197U 21083M 25303.24126288 .00000308 00000-0 80748-3 0 9991
2 49197 87.9036 5.9005 0001910 95.8196 264.3151 13.13469424200712
Epoch: Oct 30, 2025 • Age: 11 hours

当前状态

高度 1219.8 km
速度 7.25 km/s
星下点 65.24°N, 74.71°E
发射日期 Sep 14, 2021
运行时间 4.1 years
类型 internet

技术详情

分类 Payload
质量 148.00 kg
干质量 140.00 kg
总质量 148.00 kg
长度 1.30 m
直径 1.00 m
跨度 5.00 m
形状 Trapezoid+2 pan
制造商 ONEWUS
平台类型 ARROW
阶段状态 In Orbit
所有者/国家 ONEWEBN/UK

大型星座

Loading constellations...